Tracking 28794 objects as of 19-Apr-2024
HD Live streaming from Space Station
objects crossing your sky now

STARLINK-3559

Track STARLINK-3559 now!
10-day predictions
STARLINK-3559 is classified as:


NORAD ID: 51860
Int'l Code: 2022-022J
Perigee: 545.8 km
Apogee: 548.0 km
Inclination: 53.2 °
Period: 95.4 minutes
Semi major axis: 6917 km
RCS: Unknown
Launch date: March 3, 2022
Source: United States (US)
Launch site: AIR FORCE EASTERN TEST RANGE (AFETR)
Your satellite tracking list
Your tracking list is empty




NASA's NSSDC Master Catalog

Two Line Element Set (TLE):
1 51860U 22022J   24110.56678000  .00000594  00000-0  55420-4 0  9996
2 51860  53.2168 222.7114 0001625  72.5873 287.5297 15.08840749119087
Source of the keplerian elements: AFSPC